EW2887 Weather Reports


Display with metric or nautical units.
time (UTC)temp
F
wind
direction
speed
MPH
gust
MPH
rain 1hr
in
rain 24hr
in
rain mn
in
humidity
%
barometer
mb
20260502194612 72 72 7.0 15.0 0.00 0.00 0.00 18 1020.1
20260502193054 69 83 2.0 11.0 0.00 0.00 0.00 20 1020.4
20260502191552 72 207 2.0 7.0 0.00 0.00 0.00 20 1020.6
20260502190101 71 186 2.0 8.0 0.00 0.00 0.00 20 1020.9
20260502184555 69 23 3.0 12.0 0.00 0.00 0.00 21 1021.0
20260502183046 72 348 4.0 10.0 0.00 0.00 0.00 19 1021.3
20260502181543 70 268 5.0 10.0 0.00 0.00 0.00 21 1021.6
20260502180106 67 348 6.0 13.0 0.00 0.00 0.00 22 1021.8
20260502163037 69 319 6.0 13.0 0.00 0.00 0.00 34 1022.5
20260502161533 69 284 7.0 13.0 0.00 0.00 0.00 36 1022.6
20260502151519 63 282 9.0 13.0 0.00 0.00 0.00 42 1022.8
20260502123044 43 240 4.0 9.0 0.00 0.00 0.00 79 1022.2
20260502121546 42 249 6.0 10.0 0.00 0.00 0.00 79 1022.1
20260502114541 41 240 8.0 12.0 0.00 0.00 0.00 83 1021.8
20260502113037 41 234 11.0 14.0 0.00 0.00 0.00 80 1021.8
20260502111536 43 242 8.0 12.0 0.00 0.00 0.00 77 1021.7
20260502110033 43 246 9.0 12.0 0.00 0.00 0.00 80 1021.6
20260502104541 42 249 9.0 13.0 0.00 0.00 0.00 81 1021.7
20260502103033 41 220 10.0 16.0 0.00 0.00 0.00 78 1021.8
20260502101527 44 248 9.0 12.0 0.00 0.00 0.00 78 1021.7
20260502091523 43 248 7.0 10.0 0.00 0.00 0.00 80 1021.5
20260502071504 45 262 7.0 11.0 0.00 0.00 0.00 77 1021.6
20260502070002 45 253 6.0 11.0 0.00 0.00 0.00 77 1021.6
20260502064602 45 277 4.0 8.0 0.00 0.00 0.00 77 1021.7
20260502063106 46 261 5.0 8.0 0.00 0.00 0.00 77 1021.6
20260502061558 46 250 6.0 10.0 0.00 0.00 0.00 77 1021.6
20260502060110 45 264 5.0 9.0 0.00 0.00 0.00 77 1021.7
20260502054555 45 260 6.0 9.0 0.00 0.00 0.00 77 1021.6
20260502053101 45 251 6.0 10.0 0.00 0.00 0.00 76 1021.6
20260502051559 46 260 5.0 8.0 0.00 0.00 0.00 75 1021.5
20260502050055 46 265 4.0 7.0 0.00 0.00 0.00 75 1021.4
20260502044546 46 271 6.0 9.0 0.00 0.00 0.00 75 1021.3
20260502043050 45 308 4.0 5.0 0.00 0.00 0.00 75 1021.3
20260502041544 45 308 4.0 6.0 0.00 0.00 0.00 75 1021.1
20260502040042 46 308 4.0 6.0 0.00 0.00 0.00 74 1020.9
20260502034542 47 343 3.0 5.0 0.00 0.00 0.00 74 1020.9
20260502033043 47 343 3.0 5.0 0.00 0.00 0.00 74 1020.8
20260502031543 47 343 3.0 5.0 0.00 0.00 0.00 75 1020.7
20260502030040 46 343 3.0 4.0 0.00 0.00 0.00 75 1020.7
20260502024538 47 343 3.0 5.0 0.00 0.00 0.00 75 1020.5
20260502023037 47 345 2.0 4.0 0.00 0.00 0.00 73 1020.5
20260502021535 48 345 2.0 5.0 0.00 0.00 0.00 71 1020.3
20260502020034 49 348 4.0 6.0 0.00 0.00 0.00 69 1020.0
20260502014534 50 348 2.0 6.0 0.00 0.00 0.00 67 1019.6
20260502013032 51 339 5.0 8.0 0.00 0.00 0.00 65 1019.4
20260502011553 52 13 4.0 6.0 0.00 0.00 0.00 63 1019.1
20260502010031 52 328 3.0 7.0 0.00 0.00 0.00 64 1019.1
20260502004551 52 355 4.0 9.0 0.00 0.00 0.00 63 1018.9
20260502003030 53 327 6.0 12.0 0.00 0.00 0.00 61 1018.9
20260502001532 55 346 5.0 10.0 0.00 0.00 0.00 58 1018.8
20260502000029 57 350 3.0 8.0 0.00 0.00 0.00 55 1018.7
20260501234536 55 329 5.0 9.0 0.00 0.00 0.00 59 1018.6
20260501233028 54 19 5.0 7.0 0.00 0.00 0.00 59 1018.6
20260501231537 56 9 1.0 7.0 0.00 0.00 0.00 56 1018.6
20260501230026 57 318 3.0 5.0 0.00 0.00 0.00 56 1018.6
20260501224523 57 320 4.0 7.0 0.00 0.00 0.00 60 1018.6
20260501223019 55 330 1.0 5.0 0.00 0.00 0.00 65 1018.5
20260501221518 53 344 2.0 7.0 0.00 0.00 0.00 70 1018.6
20260501220023 53 9 2.0 6.0 0.00 0.00 0.00 76 1018.6
20260501214518 52 10 1.0 5.0 0.00 0.00 0.00 79 1018.7
20260501213024 51 10 1.0 5.0 0.00 0.00 0.00 82 1018.9
20260501211514 50 10 2.0 6.0 0.00 0.00 0.00 82 1019.0
20260501210011 49 9 2.0 6.0 0.00 0.00 0.00 80 1019.2
20260501204508 49 355 6.0 8.0 0.00 0.00 0.00 80 1019.3
20260501203007 49 17 4.0 9.0 0.00 0.00 0.00 80 1019.4
20260501201505 49 5 7.0 9.0 0.00 0.00 0.00 80 1019.4
20260501200002 49 22 6.0 10.0 0.00 0.00 0.00 79 1019.4